Regional Weather Roundup
Issued by NWS Cleveland, OH

Home | Current Version | Previous Version | Graphics & Text | Print | Product List | Glossary On
Versions: 1 2 3 4 5 6 7 8 9 10 11 12 13 14 15 16 17 18 19 20 21 22 23 24 25 26 27 28 29 30 31 32 33 34 35 36 37 38 39 40 41 42 43 44 45 46 47 48 49 50
000
ASUS41 KCLE 300800
RWRCLE
OHIO REGIONAL WEATHER ROUNDUP
NATIONAL WEATHER SERVICE WILMINGTON, OH
400 AM EDT SAT MAY 30 2015

NOTE: "FAIR" INDICATES FEW OR NO CLOUDS BELOW 12,000 FEET WITH NO
SIGNIFICANT WEATHER AND/OR OBSTRUCTIONS TO VISIBILITY.

OHZ001>008-015>018-024>027-034-035-043-044-300900-
   NORTHWEST OHIO

CITY           SKY/WX    TMP DP  RH WIND       PRES   REMARKS
DEFIANCE       CLEAR     70  64  81 SW7       29.99S
FINDLAY        CLEAR     70  65  84 S9        30.00F
TOLEDO EXPRESS CLEAR     69  64  84 S8        29.98S
TOLEDO EXEC    CLEAR     72  64  76 S13       29.99F
LIMA           CLEAR     70  65  84 S8        30.02S
$$

OHZ009>014-019>023-028>033-038-089-300900-
   NORTHEAST OHIO

CITY           SKY/WX    TMP DP  RH WIND       PRES   REMARKS
CLE-HOPKINS    PTCLDY    73  63  70 S13       30.04F
CLE-LAKEFRONT  PTCLDY    76  62  62 S10G22    30.01F
CUY CO. ARPT   NOT AVBL
LORAIN-ELYRIA  PTCLDY    71  63  75 SW10      30.03F
ASHTABULA      MOCLDY    71  65  81 S8        30.05S
AKRON-CANTON   MOCLDY    71  64  78 S9        30.07S
WOOSTER        NOT AVBL
MANSFIELD      PTCLDY    69  64  84 S10       30.06F
YOUNGSTOWN     CLOUDY    70  64  81 S8        30.07S
$$

OHZ042-051>053-060>062-070>072-077>081-300900-
  SOUTHWEST OHIO

CITY           SKY/WX    TMP DP  RH WIND       PRES   REMARKS
CINC-COVINGTON PTCLDY    69  65  86 S7        30.06F
CINC-LUNKEN    CLEAR     68  65  90 SW6       30.06S
HAMILTON       PTCLDY    68  66  93 CALM      30.06S
DAYTON         NOT AVBL
WRIGHT-PAT AFB CLEAR     70  67  90 S7        30.05S
DAYTON GENERAL CLEAR     68  66  93 S8        30.05S
WILMINGTON     CLEAR     69  64  84 S9        30.06F
$$

OHZ036-037-039>041-045>050-054>059-063>069-073>076-082>088-300900-
  CENTRAL AND SOUTHEAST OHIO

CITY           SKY/WX    TMP DP  RH WIND       PRES   REMARKS
COLUMBUS       CLOUDY    72  65  78 S6        30.05F
OSU AIRPORT    MOCLDY    71  65  81 S7        30.05F
BOLTON FIELD   NOT AVBL
RICKENBACK AFB NOT AVBL
NEWARK         CLOUDY    71  65  81 S3        30.06F
MARION         PTCLDY    70  64  81 S9        30.04F
LANCASTER      CLOUDY    72  65  78 SE5       30.07F
ZANESVILLE     PTCLDY    68  63  84 S5        30.08F
NEW PHILLY     PTCLDY    72  64  76 S6        30.08F
$$


USA.gov is the U.S. government's official web portal to all federal, state and local government web resources and services.